| time (UTC) | temp F | wind direction | speed MPH | gust MPH | rain 1hr in | rain 24hr in | rain mn in | humidity % | barometer mb |
| 20260508163052 | 51 | 238 | 1.0 | 5.0 | 0.00 | 0.98 | 0.00 | 93 | 1001.5 |
| 20260508161601 | 50 | 251 | 2.0 | 5.0 | 0.00 | 0.98 | 0.00 | 93 | 1001.5 |
| 20260508160045 | 48 | 222 | 2.0 | 4.0 | 0.00 | 0.98 | 0.00 | 94 | 1001.7 |
| 20260508154545 | 48 | 231 | 1.0 | 3.0 | 0.00 | 0.98 | 0.00 | 94 | 1001.9 |
| 20260508153047 | 47 | 227 | 2.0 | 4.0 | 0.00 | 0.98 | 0.00 | 94 | 1002.0 |
| 20260508151545 | 47 | 222 | 3.0 | 6.0 | 0.00 | 0.98 | 0.00 | 94 | 1002.1 |
| 20260508150043 | 47 | 259 | 1.0 | 5.0 | 0.00 | 0.98 | 0.00 | 95 | 1002.0 |
| 20260508144545 | 46 | 272 | 1.0 | 5.0 | 0.00 | 0.98 | 0.00 | 95 | 1002.0 |
| 20260508143047 | 46 | 348 | 2.0 | 6.0 | 0.00 | 0.98 | 0.00 | 95 | 1001.9 |
| 20260508141541 | 46 | 7 | 1.0 | 4.0 | 0.00 | 0.98 | 0.00 | 95 | 1002.1 |
| 20260508140041 | 46 | 5 | 1.0 | 3.0 | 0.00 | 0.98 | 0.00 | 95 | 1002.2 |
| 20260508134540 | 46 | 348 | 4.0 | 7.0 | 0.00 | 0.98 | 0.00 | 95 | 1002.3 |
| 20260508111503 | 43 | 111 | 1.0 | 10.0 | 0.00 | 0.99 | 0.00 | 95 | 1002.5 |
| 20260508110001 | 43 | 49 | 2.0 | 10.0 | 0.00 | 1.03 | 0.00 | 95 | 1002.2 |
| 20260508104559 | 43 | 24 | 0.0 | 6.0 | 0.00 | 1.03 | 0.00 | 95 | 1003.1 |
| 20260508103057 | 43 | 46 | 1.0 | 4.0 | 0.00 | 1.03 | 0.00 | 95 | 1002.5 |
| 20260508101554 | 43 | 49 | 1.0 | 4.0 | 0.00 | 1.03 | 0.00 | 95 | 1002.6 |
| 20260508100051 | 45 | 33 | 0.0 | 4.0 | 0.00 | 1.03 | 0.00 | 95 | 1002.5 |
| 20260508094603 | 45 | 58 | 0.0 | 2.0 | 0.00 | 1.04 | 0.00 | 95 | 1002.5 |
| 20260508093051 | 45 | 71 | 0.0 | 3.0 | 0.00 | 1.04 | 0.00 | 95 | 1002.2 |
| 20260508091549 | 45 | 70 | 0.0 | 3.0 | 0.00 | 1.04 | 0.00 | 95 | 1002.1 |
| 20260508090050 | 45 | 72 | 0.0 | 3.0 | 0.00 | 1.04 | 0.00 | 95 | 1002.0 |
| 20260508084547 | 45 | 34 | 0.0 | 0.0 | 0.00 | 1.06 | 0.00 | 95 | 1002.1 |
| 20260508083047 | 45 | 29 | 0.0 | 0.0 | 0.00 | 1.06 | 0.00 | 95 | 1002.2 |
| 20260508081602 | 45 | 26 | 0.0 | 2.0 | 0.00 | 1.06 | 0.00 | 95 | 1001.9 |
| 20260508080044 | 45 | 26 | 0.0 | 1.0 | 0.00 | 1.06 | 0.00 | 95 | 1001.5 |
| 20260508074543 | 45 | 20 | 0.0 | 3.0 | 0.00 | 1.09 | 0.00 | 95 | 1001.4 |
| 20260508073042 | 45 | 37 | 0.0 | 0.0 | 0.00 | 1.09 | 0.00 | 95 | 1001.7 |
| 20260508071541 | 45 | 37 | 0.0 | 0.0 | 0.00 | 1.09 | 0.00 | 95 | 1001.6 |
| 20260508070042 | 45 | 39 | 0.0 | 0.0 | 0.00 | 1.09 | 0.00 | 95 | 1001.6 |
| 20260508064539 | 46 | 22 | 0.0 | 3.0 | 0.00 | 1.09 | 0.00 | 95 | 1001.7 |
| 20260508063037 | 46 | 11 | 0.0 | 2.0 | 0.00 | 1.09 | 0.00 | 95 | 1001.5 |
| 20260508061538 | 46 | 14 | 0.0 | 0.0 | 0.00 | 1.09 | 0.00 | 95 | 1001.7 |
| 20260508060035 | 46 | 15 | 0.0 | 0.0 | 0.00 | 1.09 | 0.00 | 95 | 1002.0 |
| 20260508054541 | 46 | 19 | 0.0 | 2.0 | 0.00 | 1.09 | 0.00 | 95 | 1001.7 |
| 20260508053032 | 47 | 18 | 0.0 | 0.0 | 0.00 | 1.09 | 0.00 | 95 | 1001.7 |
| 20260508051531 | 48 | 18 | 0.0 | 1.0 | 0.00 | 1.09 | 0.00 | 95 | 1001.7 |
| 20260508050028 | 48 | 18 | 0.0 | 0.0 | 0.00 | 1.09 | 0.00 | 95 | 1001.2 |
| 20260508044526 | 48 | 18 | 0.0 | 1.0 | 0.00 | 1.09 | 0.00 | 95 | 1001.4 |
| 20260508043024 | 48 | 17 | 0.0 | 3.0 | 0.00 | 1.09 | 0.00 | 95 | 1001.6 |
| 20260508041521 | 48 | 22 | 0.0 | 1.0 | 0.00 | 1.09 | 0.00 | 95 | 1002.0 |
| 20260508040019 | 49 | 22 | 0.0 | 0.0 | 0.00 | 1.09 | 0.00 | 95 | 1002.0 |
| 20260508034518 | 49 | 22 | 0.0 | 3.0 | 0.00 | 1.09 | 0.00 | 95 | 1001.9 |
| 20260508033015 | 49 | 286 | 0.0 | 0.0 | 0.00 | 1.09 | 0.00 | 95 | 1002.2 |
| 20260508031512 | 49 | 332 | 2.0 | 5.0 | 0.00 | 1.09 | 0.00 | 95 | 1002.4 |
| 20260508030011 | 49 | 226 | 0.0 | 7.0 | 0.00 | 1.09 | 1.09 | 95 | 1002.5 |
| 20260508024511 | 49 | 240 | 1.0 | 6.0 | 0.00 | 1.09 | 1.09 | 95 | 1002.5 |
| 20260508023013 | 49 | 228 | 0.0 | 4.0 | 0.00 | 1.09 | 1.09 | 95 | 1002.5 |
| 20260508021509 | 50 | 232 | 0.0 | 3.0 | 0.00 | 1.09 | 1.09 | 95 | 1002.3 |
| 20260508020009 | 50 | 236 | 0.0 | 0.0 | 0.00 | 1.09 | 1.09 | 95 | 1002.3 |
| 20260508014508 | 50 | 236 | 0.0 | 3.0 | 0.00 | 1.09 | 1.09 | 95 | 1002.4 |
| 20260508013007 | 50 | 178 | 0.0 | 3.0 | 0.00 | 1.09 | 1.09 | 95 | 1002.3 |
| 20260508011510 | 49 | 172 | 0.0 | 1.0 | 0.00 | 1.09 | 1.09 | 95 | 1002.3 |
| 20260508010009 | 49 | 170 | 0.0 | 2.0 | 0.00 | 1.09 | 1.09 | 95 | 1002.3 |
| 20260508004508 | 49 | 168 | 0.0 | 2.0 | 0.00 | 1.09 | 1.09 | 95 | 1002.4 |
| 20260508003006 | 48 | 159 | 1.0 | 3.0 | 0.00 | 1.09 | 1.09 | 95 | 1002.7 |
| 20260508001505 | 48 | 244 | 1.0 | 6.0 | 0.00 | 1.09 | 1.09 | 95 | 1002.6 |
| 20260508000008 | 48 | 189 | 2.0 | 8.0 | 0.00 | 1.09 | 1.09 | 94 | 1002.7 |
| 20260507234515 | 48 | 165 | 4.0 | 12.0 | 0.00 | 1.09 | 1.09 | 94 | 1002.7 |
| 20260507233004 | 48 | 168 | 0.0 | 7.0 | 0.00 | 1.09 | 1.09 | 94 | 1002.5 |
| 20260507231503 | 48 | 193 | 2.0 | 12.0 | 0.00 | 1.09 | 1.09 | 94 | 1002.6 |
| 20260507230004 | 49 | 139 | 7.0 | 12.0 | 0.00 | 1.09 | 1.09 | 94 | 1002.6 |
| 20260507224506 | 50 | 187 | 6.0 | 11.0 | 0.00 | 1.09 | 1.09 | 94 | 1002.5 |
| 20260507223002 | 50 | 215 | 5.0 | 14.0 | 0.00 | 1.09 | 1.09 | 94 | 1002.3 |
| 20260507221501 | 50 | 164 | 9.0 | 16.0 | 0.01 | 1.09 | 1.09 | 94 | 1002.3 |
| 20260507220100 | 50 | 157 | 9.0 | 15.0 | 0.01 | 1.09 | 1.09 | 94 | 1002.5 |
| 20260507214601 | 50 | 169 | 8.0 | 20.0 | 0.01 | 1.09 | 1.09 | 94 | 1002.5 |
| 20260507213107 | 50 | 141 | 9.0 | 17.0 | 0.02 | 1.09 | 1.09 | 94 | 1002.3 |
| 20260507211558 | 50 | 186 | 12.0 | 20.0 | 0.03 | 1.09 | 1.09 | 94 | 1002.3 |
| 20260507210058 | 49 | 169 | 9.0 | 17.0 | 0.07 | 1.09 | 1.09 | 94 | 1001.5 |
| 20260507204559 | 49 | 136 | 10.0 | 15.0 | 0.12 | 1.09 | 1.09 | 94 | 1002.4 |
| 20260507203100 | 49 | 157 | 9.0 | 14.0 | 0.19 | 1.08 | 1.08 | 94 | 1003.0 |
| 20260507201551 | 48 | 158 | 6.0 | 13.0 | 0.28 | 1.06 | 1.06 | 94 | 1003.6 |
| 20260507200052 | 48 | 146 | 8.0 | 14.0 | 0.36 | 1.02 | 1.02 | 94 | 1003.7 |
| 20260507194547 | 48 | 132 | 8.0 | 14.0 | 0.43 | 0.97 | 0.97 | 94 | 1003.9 |
| 20260507193050 | 47 | 161 | 8.0 | 15.0 | 0.47 | 0.89 | 0.89 | 93 | 1004.6 |
| 20260507191543 | 47 | 197 | 8.0 | 19.0 | 0.49 | 0.76 | 0.76 | 93 | 1005.4 |
| 20260507190039 | 50 | 219 | 8.0 | 21.0 | 0.46 | 0.65 | 0.65 | 93 | 1005.3 |
| 20260507184539 | 52 | 228 | 8.0 | 17.0 | 0.37 | 0.54 | 0.54 | 93 | 1005.0 |
| 20260507183042 | 52 | 160 | 9.0 | 18.0 | 0.27 | 0.42 | 0.42 | 93 | 1005.0 |
| 20260507181536 | 52 | 180 | 7.0 | 20.0 | 0.12 | 0.27 | 0.27 | 93 | 1005.8 |
| 20260507180041 | 52 | 153 | 11.0 | 18.0 | 0.04 | 0.19 | 0.19 | 93 | 1004.9 |
| 20260507174536 | 52 | 136 | 11.0 | 23.0 | 0.02 | 0.17 | 0.17 | 93 | 1004.6 |
| 20260507173034 | 52 | 142 | 12.0 | 20.0 | 0.00 | 0.15 | 0.15 | 93 | 1005.1 |
| 20260507171531 | 53 | 150 | 12.0 | 20.0 | 0.01 | 0.15 | 0.15 | 93 | 1005.4 |
| 20260507170029 | 53 | 160 | 12.0 | 21.0 | 0.03 | 0.15 | 0.15 | 93 | 1005.4 |
| 20260507164528 | 52 | 204 | 8.0 | 21.0 | 0.03 | 0.15 | 0.15 | 93 | 1006.4 |